Content
SEND FEEDBACK

Daily
Averages
Monthly
Summary
United States of America

SHELDON, SOUTH CAROLINA


Home > North America > United States > South Carolina
Elevation: 15 feet     Latitude: 32 41N     Longitude: 080 51W

WEATHER
 
SELECT A DAY
Number of Records: 187,767;   Date Range: 1/1/95 - 7/29/14
 
SHARE

PRINT THIS DATA

[ ← Previous Day ]
WEATHER ALMANAC - JANUARY 23, 2013
[ Next Day → ]
[ °C ]   °F
Weather ElementAverageHighLow
Temperature44.9 °F57 °F (3:56 pm)36 °F (5:56 am)
Dewpoint24.1 °F34 °F (11:56 pm)15.1 °F (9:56 am)
Humidity46 %68 % (10:56 pm)26 % (12:56 pm)
Barometer30.31 in30.40 in (9:56 am)30.22 in (11:56 pm)
Wind Speed6.5 mph12.7 mph (12:56 pm)
Weather ElementAverage
Visibility9.9 mi
Wind DirectionWSW (264.3 °)

Weather ElementTotal
Precipitation---
Heating Degree Days18.5 (Base 65)
Averaged from 23 records on January 23, 2013
WEATHER CONDITIONS BREAKOUT
WIND DIRECTION BREAKOUT
WEATHER BY HOUR - JANUARY 23, 2013
[ °C ]   °F
Local TimeTemperatureDewpointHumidityBarometerVisibilityWind DirectionWind SpeedGust SpeedPrecipitationEventsConditions
1:56 AM39.0 °F19.9 °F46 %30.30 in10.0 miWNW (300°)6.9 mphClear
2:56 AM37.9 °F19.9 °F48 %30.31 in10.0 miNW (320°)4.6 mphClear
3:56 AM37.9 °F19.0 °F47 %30.31 in10.0 miNW (320°)5.8 mphClear
4:56 AM37.0 °F19.0 °F48 %30.32 in10.0 miNW (320°)6.9 mphClear
5:56 AM36.0 °F19.9 °F52 %30.34 in10.0 miNW (310°)4.6 mphClear
6:56 AM36.0 °F19.9 °F52 %30.35 in10.0 miNNW (330°)3.5 mphClear
7:56 AM37.0 °F21.0 °F52 %30.38 in10.0 miNNW (330°)6.9 mphClear
8:56 AM41.0 °F18.0 °F40 %30.39 in10.0 miNNW (340°)8.1 mphClear
9:56 AM43.0 °F15.1 °F32 %30.40 in10.0 miNorth (350°)9.2 mphClear
10:56 AM46.9 °F17.1 °F30 %30.40 in10.0 miNNW (340°)5.8 mphClear
11:56 AM50.0 °F19.0 °F29 %30.37 in10.0 miWest (280°)10.4 mphPartly Cloudy
12:56 PM54.0 °F19.9 °F26 %30.33 in10.0 miWest (270°)12.7 mphClear
1:56 PM55.9 °F24.1 °F29 %30.30 in10.0 miWNW (290°)10.4 mphClear
2:56 PM55.9 °F24.1 °F29 %30.27 in10.0 miCalmClear
3:56 PM57.0 °F26.1 °F30 %30.26 in10.0 miWest (260°)12.7 mphClear
4:56 PM55.9 °F26.1 °F32 %30.26 in10.0 miWest (280°)6.9 mphClear
5:56 PM51.1 °F33.1 °F50 %30.25 in8.0 miWSW (240°)3.5 mphClear
6:56 PM46.0 °F30.9 °F56 %30.27 in9.0 miCalmClear
7:56 PM45.0 °F32.0 °F60 %30.26 in10.0 miWSW (240°)4.6 mphClear
8:56 PM41.0 °F30.9 °F67 %30.25 in10.0 miWSW (240°)4.6 mphClear
9:56 PM42.1 °F32.0 °F67 %30.25 in10.0 miWSW (250°)6.9 mphClear
10:56 PM43.0 °F33.1 °F68 %30.23 in10.0 miSW (230°)6.9 mphClear
11:56 PM44.1 °F34.0 °F68 %30.22 in10.0 miWSW (240°)6.9 mphClear
Hourly data recorded from KNBC, located miles away from Sheldon, South Carolina







STORIES FROM OUR PARTNERS